Weather History for Kenosha, WI

Change the Weather History Date:

Wednesday, January 9, 2013

  Actual Average Record
Temperature  
Mean Temperature 36 °F -  
Max Temperature 44 °F 25 °F 53 °F (2002)
Min Temperature 27 °F 10 °F -20 °F (1982)
Degree Days  
Heating Degree Days 30    
Moisture  
Dew Point 25 °F    
Average Humidity 65    
Maximum Humidity 78    
Minimum Humidity 45    
Precipitation  
Precipitation 0.00 in - - ()
Sea Level Pressure  
Sea Level Pressure 30.23 in    
Wind  
Wind Speed 16 mph (WSW)    
Max Wind Speed 30 mph    
Max Gust Speed 38 mph    
Visibility 10 miles    
Events      
Averages and records for this station are not official NWS values.
T = Trace of Precipitation, MM = Missing Value Source: NWS Daily Summary

Daily Weather History Graph

Daily Weather History Graph

Search for Another Location

Airport:

Trip Planner

Search our weather history database for the weather conditions in past years. The results will help you decide how hot, cold, wet, or windy it might be!

Date:

Astronomy

Jan. 09, 2013 Rise Set
Actual Time 7:21 AM CST 4:37 PM CST
Civil Twilight 6:49 AM CST 5:08 PM CST
Nautical Twilight 6:14 AM CST 5:43 PM CST
Astronomical Twilight 5:40 AM CST 6:17 PM CST
Moon 5:00 AM CST (1/9) 2:38 PM CST (1/9)
Length of Visible Light 10h 19m
Length of Day
9h 16m
Waning Crescent, 6% of the Moon is Illuminated
Jan 9
Waning Crescent
Jan 11
New
Jan 18
First Quarter
Jan 26
Full
Feb 3
Last Quarter

Hourly Weather History & Observations

Time (CST) Temp. Windchill Dew Point Humidity Pressure Visibility Wind Dir Wind Speed Gust Speed Precip Events Conditions
12:53 AM 41.0 °F 33.9 °F 27.0 °F 57% 29.96 in 10.0 mi SW 12.7 mph 21.9 mph N/A   Overcast
1:53 AM 39.9 °F 30.0 °F 28.0 °F 63% 29.96 in 10.0 mi WSW 21.9 mph 26.5 mph N/A   Clear
2:53 AM 39.9 °F 31.1 °F 28.9 °F 65% 29.98 in 10.0 mi WSW 17.3 mph 29.9 mph N/A   Partly Cloudy
3:53 AM 37.9 °F 27.9 °F 28.9 °F 70% 30.00 in 10.0 mi WSW 19.6 mph 27.6 mph N/A   Partly Cloudy
4:53 AM 36.0 °F 25.3 °F 28.9 °F 76% 30.03 in 10.0 mi West 19.6 mph 25.3 mph N/A   Clear
5:53 AM 35.1 °F 25.5 °F 28.0 °F 76% 30.09 in 10.0 mi West 15.0 mph 26.5 mph N/A   Clear
6:53 AM 34.0 °F 24.6 °F 27.0 °F 75% 30.12 in 10.0 mi West 13.8 mph - N/A   Clear
7:53 AM 34.0 °F 25.5 °F 27.0 °F 75% 30.15 in 10.0 mi WSW 11.5 mph - N/A   Clear
8:53 AM 36.0 °F 26.3 °F 27.0 °F 70% 30.17 in 10.0 mi WSW 16.1 mph - N/A   Clear
9:53 AM 39.9 °F 30.2 °F 28.0 °F 63% 30.18 in 10.0 mi West 20.7 mph 27.6 mph N/A   Clear
10:53 AM 43.0 °F 33.3 °F 26.1 °F 51% 30.19 in 10.0 mi West 25.3 mph 34.5 mph N/A   Clear
11:53 AM 44.1 °F 35.4 °F 25.0 °F 47% 30.21 in 10.0 mi West 21.9 mph 32.2 mph N/A   Clear
12:53 PM 44.1 °F 34.0 °F 24.1 °F 45% 30.24 in 10.0 mi West 29.9 mph 36.8 mph N/A   Clear
1:53 PM 43.0 °F 33.1 °F 23.0 °F 45% 30.26 in 10.0 mi West 26.5 mph 38.0 mph N/A   Clear
2:53 PM 41.0 °F 31.6 °F 23.0 °F 49% 30.31 in 10.0 mi West 20.7 mph 27.6 mph N/A   Clear
4:53 PM 37.0 °F 28.5 °F 24.1 °F 59% 30.38 in 10.0 mi West 13.8 mph - N/A   Clear
5:53 PM 34.0 °F 28.0 °F 24.1 °F 67% 30.43 in 10.0 mi West 6.9 mph - N/A   Clear
6:53 PM 30.9 °F 23.5 °F 23.0 °F 72% 30.46 in 10.0 mi WSW 8.1 mph - N/A   Clear
7:53 PM 30.9 °F 23.5 °F 23.0 °F 72% 30.46 in 10.0 mi West 8.1 mph - N/A   Clear
8:53 PM 33.1 °F 26.1 °F 24.1 °F 70% 30.44 in 10.0 mi NW 8.1 mph - N/A   Clear
9:53 PM 28.0 °F - 21.0 °F 75% 30.44 in 10.0 mi Calm Calm - N/A   Clear
10:53 PM 27.0 °F 21.6 °F 21.0 °F 78% 30.45 in 10.0 mi WSW 4.6 mph - N/A   Clear
11:53 PM 28.0 °F 24.2 °F 19.9 °F 72% 30.49 in 10.0 mi SSW 3.5 mph - N/A   Clear